<?xml version="1.0" encoding="UTF-8" standalone="no" ?>
<gpx xmlns="http://www.topografix.com/GPX/1/1" xmlns:xsi="http://www.w3.org/2001/XMLSchema-instance" xsi:schemaLocation="http://www.topografix.com/GPX/1/1 http://www.topografix.com/GPX/1/1/gpx.xsd" version="1.1" creator="VisuGPX - https://www.visugpx.com">
  <metadata>
    <name>Sicaudais_CoteauxPoiriersEt2Boucles_20-22km</name>
    <desc><![CDATA[gnerando idor:12823711_13111116]]></desc>
  </metadata>
  <trk>
    <name><![CDATA[LaSicaudais_2boucles_22km-12823711]]></name>
    <extensions>
      <line xmlns="http://www.topografix.com/GPX/gpx_style/0/2">
        <color>00FF00</color>
        <width>4</width>
      </line>
    </extensions>
    <trkseg>
      <trkpt lat="47.18725" lon="-1.94761">
        <ele>29</ele>
        <time>2023-11-01T12:46:36Z</time>
      </trkpt>
      <trkpt lat="47.18681" lon="-1.9466">
        <ele>35</ele>
        <time>2023-11-01T12:48:25Z</time>
      </trkpt>
      <trkpt lat="47.1862" lon="-1.94538">
        <ele>40</ele>
        <time>2023-11-01T12:50:42Z</time>
      </trkpt>
      <trkpt lat="47.18565" lon="-1.94484">
        <ele>42</ele>
        <time>2023-11-01T12:52:10Z</time>
      </trkpt>
      <trkpt lat="47.18473" lon="-1.94278">
        <ele>47</ele>
        <time>2023-11-01T12:55:54Z</time>
      </trkpt>
      <trkpt lat="47.18443" lon="-1.94084">
        <ele>47</ele>
        <time>2023-11-01T12:58:54Z</time>
      </trkpt>
      <trkpt lat="47.18445" lon="-1.93961">
        <ele>43</ele>
        <time>2023-11-01T13:00:46Z</time>
      </trkpt>
      <trkpt lat="47.18423" lon="-1.93842">
        <ele>40</ele>
        <time>2023-11-01T13:02:38Z</time>
      </trkpt>
      <trkpt lat="47.18557" lon="-1.93715">
        <ele>37</ele>
        <time>2023-11-01T13:06:11Z</time>
      </trkpt>
      <trkpt lat="47.18676" lon="-1.93592">
        <ele>30</ele>
        <time>2023-11-01T13:09:25Z</time>
      </trkpt>
      <trkpt lat="47.18656" lon="-1.93372">
        <ele>37</ele>
        <time>2023-11-01T13:12:46Z</time>
      </trkpt>
      <trkpt lat="47.18566" lon="-1.93374">
        <ele>39</ele>
        <time>2023-11-01T13:14:46Z</time>
      </trkpt>
      <trkpt lat="47.18556" lon="-1.93402">
        <ele>38</ele>
        <time>2023-11-01T13:15:15Z</time>
      </trkpt>
      <trkpt lat="47.18515" lon="-1.93407">
        <ele>38</ele>
        <time>2023-11-01T13:16:10Z</time>
      </trkpt>
      <trkpt lat="47.18454" lon="-1.9302">
        <ele>45</ele>
        <time>2023-11-01T13:22:10Z</time>
      </trkpt>
      <trkpt lat="47.18491" lon="-1.92992">
        <ele>45</ele>
        <time>2023-11-01T13:23:05Z</time>
      </trkpt>
      <trkpt lat="47.18475" lon="-1.92939">
        <ele>45</ele>
        <time>2023-11-01T13:23:58Z</time>
      </trkpt>
      <trkpt lat="47.18388" lon="-1.92907">
        <ele>45</ele>
        <time>2023-11-01T13:25:58Z</time>
      </trkpt>
      <trkpt lat="47.18282" lon="-1.92811">
        <ele>44</ele>
        <time>2023-11-01T13:28:44Z</time>
      </trkpt>
      <trkpt lat="47.18277" lon="-1.92729">
        <ele>44</ele>
        <time>2023-11-01T13:29:58Z</time>
      </trkpt>
      <trkpt lat="47.18531" lon="-1.9258">
        <ele>39</ele>
        <time>2023-11-01T13:36:03Z</time>
      </trkpt>
      <trkpt lat="47.18683" lon="-1.92557">
        <ele>38</ele>
        <time>2023-11-01T13:39:27Z</time>
      </trkpt>
      <trkpt lat="47.19015" lon="-1.92408">
        <ele>35</ele>
        <time>2023-11-01T13:47:10Z</time>
      </trkpt>
      <trkpt lat="47.19215" lon="-1.92161">
        <ele>26</ele>
        <time>2023-11-01T13:52:59Z</time>
      </trkpt>
      <trkpt lat="47.19169" lon="-1.91915">
        <ele>24</ele>
        <time>2023-11-01T13:56:50Z</time>
      </trkpt>
      <trkpt lat="47.19279" lon="-1.91803">
        <ele>18</ele>
        <time>2023-11-01T13:59:49Z</time>
      </trkpt>
      <trkpt lat="47.19311" lon="-1.91646">
        <ele>15</ele>
        <time>2023-11-01T14:02:17Z</time>
      </trkpt>
      <trkpt lat="47.19405" lon="-1.9165">
        <ele>15</ele>
        <time>2023-11-01T14:04:23Z</time>
      </trkpt>
      <trkpt lat="47.19319" lon="-1.9143">
        <ele>12</ele>
        <time>2023-11-01T14:08:13Z</time>
      </trkpt>
      <trkpt lat="47.19235" lon="-1.91158">
        <ele>11</ele>
        <time>2023-11-01T14:12:44Z</time>
      </trkpt>
      <trkpt lat="47.1918" lon="-1.90997">
        <ele>11</ele>
        <time>2023-11-01T14:15:27Z</time>
      </trkpt>
      <trkpt lat="47.19048" lon="-1.91012">
        <ele>19</ele>
        <time>2023-11-01T14:18:24Z</time>
      </trkpt>
      <trkpt lat="47.18913" lon="-1.91042">
        <ele>31</ele>
        <time>2023-11-01T14:21:26Z</time>
      </trkpt>
      <trkpt lat="47.18918" lon="-1.90915">
        <ele>30</ele>
        <time>2023-11-01T14:23:22Z</time>
      </trkpt>
      <trkpt lat="47.18809" lon="-1.90896">
        <ele>33</ele>
        <time>2023-11-01T14:25:48Z</time>
      </trkpt>
      <trkpt lat="47.18665" lon="-1.90743">
        <ele>37</ele>
        <time>2023-11-01T14:29:45Z</time>
      </trkpt>
      <trkpt lat="47.1851" lon="-1.90579">
        <ele>42</ele>
        <time>2023-11-01T14:34:00Z</time>
      </trkpt>
      <trkpt lat="47.18439" lon="-1.90471">
        <ele>45</ele>
        <time>2023-11-01T14:36:16Z</time>
      </trkpt>
      <trkpt lat="47.18346" lon="-1.90502">
        <ele>46</ele>
        <time>2023-11-01T14:38:23Z</time>
      </trkpt>
      <trkpt lat="47.18287" lon="-1.90572">
        <ele>48</ele>
        <time>2023-11-01T14:40:05Z</time>
      </trkpt>
      <trkpt lat="47.1818" lon="-1.90614">
        <ele>52</ele>
        <time>2023-11-01T14:42:32Z</time>
      </trkpt>
      <trkpt lat="47.18071" lon="-1.90665">
        <ele>52</ele>
        <time>2023-11-01T14:45:05Z</time>
      </trkpt>
      <trkpt lat="47.17993" lon="-1.90762">
        <ele>52</ele>
        <time>2023-11-01T14:47:21Z</time>
      </trkpt>
      <trkpt lat="47.18015" lon="-1.90793">
        <ele>51</ele>
        <time>2023-11-01T14:48:02Z</time>
      </trkpt>
      <trkpt lat="47.18143" lon="-1.90885">
        <ele>45</ele>
        <time>2023-11-01T14:51:12Z</time>
      </trkpt>
      <trkpt lat="47.18241" lon="-1.90978">
        <ele>36</ele>
        <time>2023-11-01T14:53:48Z</time>
      </trkpt>
      <trkpt lat="47.18233" lon="-1.91002">
        <ele>36</ele>
        <time>2023-11-01T14:54:12Z</time>
      </trkpt>
      <trkpt lat="47.18127" lon="-1.90952">
        <ele>44</ele>
        <time>2023-11-01T14:56:40Z</time>
      </trkpt>
      <trkpt lat="47.18066" lon="-1.91232">
        <ele>42</ele>
        <time>2023-11-01T15:01:07Z</time>
      </trkpt>
      <trkpt lat="47.1796" lon="-1.91118">
        <ele>44</ele>
        <time>2023-11-01T15:04:02Z</time>
      </trkpt>
      <trkpt lat="47.17831" lon="-1.91282">
        <ele>34</ele>
        <time>2023-11-01T15:07:50Z</time>
      </trkpt>
      <trkpt lat="47.17627" lon="-1.91216">
        <ele>44</ele>
        <time>2023-11-01T15:12:29Z</time>
      </trkpt>
      <trkpt lat="47.17619" lon="-1.91128">
        <ele>47</ele>
        <time>2023-11-01T15:13:49Z</time>
      </trkpt>
      <trkpt lat="47.17592" lon="-1.91043">
        <ele>50</ele>
        <time>2023-11-01T15:15:14Z</time>
      </trkpt>
      <trkpt lat="47.1757" lon="-1.90952">
        <ele>52</ele>
        <time>2023-11-01T15:16:42Z</time>
      </trkpt>
      <trkpt lat="47.17536" lon="-1.90991">
        <ele>50</ele>
        <time>2023-11-01T15:17:39Z</time>
      </trkpt>
      <trkpt lat="47.17457" lon="-1.90986">
        <ele>52</ele>
        <time>2023-11-01T15:19:25Z</time>
      </trkpt>
      <trkpt lat="47.17421" lon="-1.91082">
        <ele>53</ele>
        <time>2023-11-01T15:21:04Z</time>
      </trkpt>
      <trkpt lat="47.17273" lon="-1.91103">
        <ele>55</ele>
        <time>2023-11-01T15:24:23Z</time>
      </trkpt>
      <trkpt lat="47.17346" lon="-1.91267">
        <ele>51</ele>
        <time>2023-11-01T15:27:21Z</time>
      </trkpt>
      <trkpt lat="47.17378" lon="-1.91493">
        <ele>47</ele>
        <time>2023-11-01T15:30:50Z</time>
      </trkpt>
      <trkpt lat="47.17408" lon="-1.91532">
        <ele>45</ele>
        <time>2023-11-01T15:31:43Z</time>
      </trkpt>
      <trkpt lat="47.17412" lon="-1.91685">
        <ele>40</ele>
        <time>2023-11-01T15:34:02Z</time>
      </trkpt>
      <trkpt lat="47.17368" lon="-1.91697">
        <ele>42</ele>
        <time>2023-11-01T15:35:02Z</time>
      </trkpt>
      <trkpt lat="47.17348" lon="-1.91783">
        <ele>44</ele>
        <time>2023-11-01T15:36:25Z</time>
      </trkpt>
      <trkpt lat="47.17317" lon="-1.91787">
        <ele>45</ele>
        <time>2023-11-01T15:37:06Z</time>
      </trkpt>
      <trkpt lat="47.17309" lon="-1.91949">
        <ele>46</ele>
        <time>2023-11-01T15:39:33Z</time>
      </trkpt>
      <trkpt lat="47.17343" lon="-1.92097">
        <ele>42</ele>
        <time>2023-11-01T15:41:55Z</time>
      </trkpt>
      <trkpt lat="47.17308" lon="-1.92161">
        <ele>43</ele>
        <time>2023-11-01T15:43:10Z</time>
      </trkpt>
      <trkpt lat="47.17438" lon="-1.92412">
        <ele>45</ele>
        <time>2023-11-01T15:47:56Z</time>
      </trkpt>
      <trkpt lat="47.17283" lon="-1.92707">
        <ele>47</ele>
        <time>2023-11-01T15:53:34Z</time>
      </trkpt>
      <trkpt lat="47.17224" lon="-1.92883">
        <ele>50</ele>
        <time>2023-11-01T15:56:32Z</time>
      </trkpt>
      <trkpt lat="47.17295" lon="-1.93025">
        <ele>54</ele>
        <time>2023-11-01T15:59:12Z</time>
      </trkpt>
      <trkpt lat="47.17318" lon="-1.93181">
        <ele>54</ele>
        <time>2023-11-01T16:01:37Z</time>
      </trkpt>
      <trkpt lat="47.17355" lon="-1.93514">
        <ele>48</ele>
        <time>2023-11-01T16:06:43Z</time>
      </trkpt>
      <trkpt lat="47.17446" lon="-1.93732">
        <ele>43</ele>
        <time>2023-11-01T16:10:35Z</time>
      </trkpt>
      <trkpt lat="47.17493" lon="-1.93835">
        <ele>40</ele>
        <time>2023-11-01T16:12:28Z</time>
      </trkpt>
      <trkpt lat="47.17521" lon="-1.94174">
        <ele>47</ele>
        <time>2023-11-01T16:17:37Z</time>
      </trkpt>
      <trkpt lat="47.17748" lon="-1.94181">
        <ele>45</ele>
        <time>2023-11-01T16:22:40Z</time>
      </trkpt>
      <trkpt lat="47.18036" lon="-1.94193">
        <ele>45</ele>
        <time>2023-11-01T16:29:05Z</time>
      </trkpt>
      <trkpt lat="47.18168" lon="-1.94221">
        <ele>43</ele>
        <time>2023-11-01T16:32:03Z</time>
      </trkpt>
      <trkpt lat="47.18276" lon="-1.94306">
        <ele>48</ele>
        <time>2023-11-01T16:34:46Z</time>
      </trkpt>
      <trkpt lat="47.1841" lon="-1.94448">
        <ele>46</ele>
        <time>2023-11-01T16:38:27Z</time>
      </trkpt>
      <trkpt lat="47.18534" lon="-1.94478">
        <ele>43</ele>
        <time>2023-11-01T16:41:14Z</time>
      </trkpt>
      <trkpt lat="47.18589" lon="-1.94514">
        <ele>41</ele>
        <time>2023-11-01T16:42:35Z</time>
      </trkpt>
      <trkpt lat="47.18652" lon="-1.94603">
        <ele>38</ele>
        <time>2023-11-01T16:44:31Z</time>
      </trkpt>
      <trkpt lat="47.18734" lon="-1.94747">
        <ele>28</ele>
        <time>2023-11-01T16:47:21Z</time>
      </trkpt>
      <trkpt lat="47.18778" lon="-1.94796">
        <ele>26</ele>
        <time>2023-11-01T16:48:35Z</time>
      </trkpt>
      <trkpt lat="47.18814" lon="-1.94801">
        <ele>24</ele>
        <time>2023-11-01T16:49:23Z</time>
      </trkpt>
      <trkpt lat="47.18847" lon="-1.94777">
        <ele>23</ele>
        <time>2023-11-01T16:50:13Z</time>
      </trkpt>
      <trkpt lat="47.18884" lon="-1.94768">
        <ele>21</ele>
        <time>2023-11-01T16:51:03Z</time>
      </trkpt>
      <trkpt lat="47.18959" lon="-1.94829">
        <ele>20</ele>
        <time>2023-11-01T16:52:57Z</time>
      </trkpt>
      <trkpt lat="47.19082" lon="-1.94722">
        <ele>19</ele>
        <time>2023-11-01T16:56:08Z</time>
      </trkpt>
      <trkpt lat="47.19286" lon="-1.94727">
        <ele>18</ele>
        <time>2023-11-01T17:00:40Z</time>
      </trkpt>
      <trkpt lat="47.19318" lon="-1.94967">
        <ele>18</ele>
        <time>2023-11-01T17:04:22Z</time>
      </trkpt>
      <trkpt lat="47.19651" lon="-1.9577">
        <ele>23</ele>
        <time>2023-11-01T17:18:35Z</time>
      </trkpt>
      <trkpt lat="47.19525" lon="-1.9592">
        <ele>26</ele>
        <time>2023-11-01T17:22:11Z</time>
      </trkpt>
      <trkpt lat="47.1954" lon="-1.96224">
        <ele>30</ele>
        <time>2023-11-01T17:26:47Z</time>
      </trkpt>
      <trkpt lat="47.19479" lon="-1.96199">
        <ele>28</ele>
        <time>2023-11-01T17:28:12Z</time>
      </trkpt>
      <trkpt lat="47.19458" lon="-1.9637">
        <ele>29</ele>
        <time>2023-11-01T17:30:49Z</time>
      </trkpt>
      <trkpt lat="47.19569" lon="-1.9692">
        <ele>33</ele>
        <time>2023-11-01T17:39:30Z</time>
      </trkpt>
      <trkpt lat="47.19245" lon="-1.96993">
        <ele>35</ele>
        <time>2023-11-01T17:46:47Z</time>
      </trkpt>
      <trkpt lat="47.19142" lon="-1.97046">
        <ele>36</ele>
        <time>2023-11-01T17:49:13Z</time>
      </trkpt>
      <trkpt lat="47.19186" lon="-1.97364">
        <ele>35</ele>
        <time>2023-11-01T17:54:07Z</time>
      </trkpt>
      <trkpt lat="47.19221" lon="-1.97691">
        <ele>34</ele>
        <time>2023-11-01T17:59:07Z</time>
      </trkpt>
      <trkpt lat="47.1935" lon="-1.98147">
        <ele>35</ele>
        <time>2023-11-01T18:06:35Z</time>
      </trkpt>
      <trkpt lat="47.19353" lon="-1.98314">
        <ele>37</ele>
        <time>2023-11-01T18:09:07Z</time>
      </trkpt>
      <trkpt lat="47.19486" lon="-1.98573">
        <ele>30</ele>
        <time>2023-11-01T18:14:01Z</time>
      </trkpt>
      <trkpt lat="47.19499" lon="-1.98553">
        <ele>30</ele>
        <time>2023-11-01T18:14:26Z</time>
      </trkpt>
      <trkpt lat="47.19532" lon="-1.98551">
        <ele>30</ele>
        <time>2023-11-01T18:15:10Z</time>
      </trkpt>
      <trkpt lat="47.19565" lon="-1.98449">
        <ele>28</ele>
        <time>2023-11-01T18:16:53Z</time>
      </trkpt>
      <trkpt lat="47.19654" lon="-1.98357">
        <ele>28</ele>
        <time>2023-11-01T18:19:18Z</time>
      </trkpt>
      <trkpt lat="47.19721" lon="-1.98241">
        <ele>26</ele>
        <time>2023-11-01T18:21:36Z</time>
      </trkpt>
      <trkpt lat="47.19855" lon="-1.98151">
        <ele>30</ele>
        <time>2023-11-01T18:24:52Z</time>
      </trkpt>
      <trkpt lat="47.20021" lon="-1.97875">
        <ele>28</ele>
        <time>2023-11-01T18:30:26Z</time>
      </trkpt>
      <trkpt lat="47.20152" lon="-1.97911">
        <ele>35</ele>
        <time>2023-11-01T18:33:24Z</time>
      </trkpt>
      <trkpt lat="47.20195" lon="-1.97669">
        <ele>34</ele>
        <time>2023-11-01T18:37:11Z</time>
      </trkpt>
      <trkpt lat="47.20285" lon="-1.97438">
        <ele>28</ele>
        <time>2023-11-01T18:41:13Z</time>
      </trkpt>
      <trkpt lat="47.20318" lon="-1.97156">
        <ele>19</ele>
        <time>2023-11-01T18:45:32Z</time>
      </trkpt>
      <trkpt lat="47.20423" lon="-1.97018">
        <ele>18</ele>
        <time>2023-11-01T18:48:40Z</time>
      </trkpt>
      <trkpt lat="47.2049" lon="-1.96838">
        <ele>21</ele>
        <time>2023-11-01T18:51:46Z</time>
      </trkpt>
      <trkpt lat="47.20534" lon="-1.96641">
        <ele>18</ele>
        <time>2023-11-01T18:54:54Z</time>
      </trkpt>
      <trkpt lat="47.20473" lon="-1.96315">
        <ele>14</ele>
        <time>2023-11-01T19:00:00Z</time>
      </trkpt>
      <trkpt lat="47.20421" lon="-1.96267">
        <ele>12</ele>
        <time>2023-11-01T19:01:22Z</time>
      </trkpt>
      <trkpt lat="47.20356" lon="-1.96282">
        <ele>12</ele>
        <time>2023-11-01T19:02:50Z</time>
      </trkpt>
      <trkpt lat="47.20339" lon="-1.96222">
        <ele>10</ele>
        <time>2023-11-01T19:03:49Z</time>
      </trkpt>
      <trkpt lat="47.20371" lon="-1.96148">
        <ele>10</ele>
        <time>2023-11-01T19:05:09Z</time>
      </trkpt>
      <trkpt lat="47.20365" lon="-1.961">
        <ele>10</ele>
        <time>2023-11-01T19:05:53Z</time>
      </trkpt>
      <trkpt lat="47.20354" lon="-1.9591">
        <ele>13</ele>
        <time>2023-11-01T19:08:46Z</time>
      </trkpt>
      <trkpt lat="47.2038" lon="-1.95731">
        <ele>14</ele>
        <time>2023-11-01T19:11:32Z</time>
      </trkpt>
      <trkpt lat="47.20368" lon="-1.95531">
        <ele>14</ele>
        <time>2023-11-01T19:14:34Z</time>
      </trkpt>
      <trkpt lat="47.20403" lon="-1.95036">
        <ele>7</ele>
        <time>2023-11-01T19:22:05Z</time>
      </trkpt>
      <trkpt lat="47.20363" lon="-1.94824">
        <ele>12</ele>
        <time>2023-11-01T19:25:24Z</time>
      </trkpt>
      <trkpt lat="47.20222" lon="-1.94409">
        <ele>17</ele>
        <time>2023-11-01T19:32:25Z</time>
      </trkpt>
      <trkpt lat="47.19996" lon="-1.9441">
        <ele>16</ele>
        <time>2023-11-01T19:37:27Z</time>
      </trkpt>
      <trkpt lat="47.1988" lon="-1.94456">
        <ele>18</ele>
        <time>2023-11-01T19:40:07Z</time>
      </trkpt>
      <trkpt lat="47.19593" lon="-1.94646">
        <ele>23</ele>
        <time>2023-11-01T19:47:07Z</time>
      </trkpt>
      <trkpt lat="47.19385" lon="-1.94705">
        <ele>18</ele>
        <time>2023-11-01T19:51:50Z</time>
      </trkpt>
      <trkpt lat="47.19068" lon="-1.94725">
        <ele>19</ele>
        <time>2023-11-01T19:58:53Z</time>
      </trkpt>
      <trkpt lat="47.18949" lon="-1.94827">
        <ele>21</ele>
        <time>2023-11-01T20:01:57Z</time>
      </trkpt>
      <trkpt lat="47.18863" lon="-1.94766">
        <ele>22</ele>
        <time>2023-11-01T20:04:04Z</time>
      </trkpt>
      <trkpt lat="47.1879" lon="-1.94801">
        <ele>25</ele>
        <time>2023-11-01T20:05:47Z</time>
      </trkpt>
      <trkpt lat="47.18747" lon="-1.94764">
        <ele>27</ele>
        <time>2023-11-01T20:06:53Z</time>
      </trkpt>
    </trkseg>
  </trk>
</gpx>